Temperature
6 5 5 4 4 4 3 3 3 2 3 3 3 3 2 2 2 2 2 2 2 2 2 2 2 2 2 2 2 2 2 2 2 2 2 2 2 3
5 5 4 4 4 3 3 3 2 2 2 2 2 2 2 2 2 2 2 2 2 2 1 1 1 1 1 1 1 1 1 1 1 1 2 2 2 2
5 4 4 3 3 3 3 3 2 2 1 2 2 2 2 2 2 2 1 1 1 1 1 1 1 1 1 1 1 1 1 1 1 1 1 1 2 2
4 4 3 3 3 3 3 2 2 2 1 1 2 1 1 1 1 1 1 1 1 1 1 1 1 1 1 1 1 1 1 1 1 1 1 1 1 2
4 3 3 3 3 3 2 2 2 2 1 1 1 1 1 1 1 1 1 1 1 1 0 0 0 0 0 0 0 0 0 0 0 1 1 1 1 1
3 3 3 3 2 2 2 2 2 1 1 1 1 1 1 1 1 1 1 1 1 1 0 -0 -0 -0 -0 -0 -0 -0 -0 0 0 0 0 1 1 1
3 3 3 2 2 2 2 1 1 1 1 0 0 0 0 0 -0 -0 -0 0 0 0 0 0 -0 -0 -0 -0 -0 -0 -0 -0 -0 0 0 0 0 1
2 2 2 2 2 2 2 1 1 1 0 0 -0 -0 -0 -1 -1 -1 -1 -1 -1 -0 -0 -0 -0 -1 -1 -1 -1 -1 -1 -0 -0 -0 -0 0 0 0
2 2 2 2 1 1 1 1 1 0 0 -0 -0 -1 -1 -1 -1 -1 -1 -1 -1 -1 -1 -1 -0 -1 -1 -1 -1 -1 -1 -1 -1 -1 -0 -0 0 0
1 1 1 1 1 1 1 0 0 0 -0 -0 -1 -1 -1 -1 -1 -2 -2 -2 -1 -1 -2 -2 -1 -1 -1 -1 -1 -1 -1 -1 -1 -1 -1 -0 -0 -0
1 1 1 0 0 0 0 0 0 0 -0 -0 -1 -1 -1 -1 -2 -2 -2 -2 -2 -1 -2 -2 -2 -2 -1 -1 -1 -1 -1 -1 -1 -1 -1 -1 -1 -0
1 0 0 0 0 -0 -0 -0 -0 -0 -0 -0 -0 -1 -1 -1 -1 -2 -2 -2 -3 -3 -2 -3 -3 -3 -2 -2 -1 -1 -1 -1 -1 -1 -1 -1 -1 -1
0 0 0 -0 -0 -0 -0 -1 -1 -1 -1 -1 -1 -1 -1 -1 -1 -2 -2 -2 -3 -3 -3 -3 -3 -3 -3 -3 -2 -2 -2 -2 -2 -1 -1 -1 -1 -1
-0 -0 -0 -1 -1 -1 -1 -1 -1 -1 -1 -1 -1 -1 -1 -2 -2 -2 -2 -2 -3 -3 -3 -3 -3 -3 -3 -3 -3 -2 -2 -2 -2 -2 -2 -1 -1 -1
-1 -1 -1 -1 -1 -1 -1 -1 -1 -1 -1 -1 -2 -2 -2 -2 -2 -2 -2 -2 -2 -2 -2 -3 -3 -3 -3 -3 -3 -3 -2 -2 -2 -2 -2 -2 -2 -1
-1 -1 -1 -1 -1 -2 -1 -1 -1 -2 -2 -2 -2 -2 -2 -2 -2 -2 -2 -2 -2 -2 -2 -2 -3 -3 -3 -3 -3 -3 -3 -3 -2 -2 -2 -2 -2 -2
-2 -2 -2 -2 -2 -2 -2 -2 -2 -2 -2 -2 -2 -2 -2 -2 -2 -2 -2 -3 -3 -3 -3 -2 -2 -3 -3 -3 -3 -3 -3 -3 -3 -3 -3 -2 -2 -2
-2 -2 -2 -2 -2 -2 -2 -2 -2 -2 -2 -3 -3 -3 -3 -2 -2 -3 -3 -3 -3 -3 -3 -3 -3 -3 -3 -3 -3 -3 -3 -3 -3 -3 -3 -3 -2 -2
-3 -3 -3 -3 -3 -3 -3 -3 -3 -3 -3 -3 -3 -3 -3 -3 -3 -3 -3 -3 -3 -3 -3 -3 -4 -4 -4 -4 -4 -4 -4 -3 -3 -3 -3 -3 -3 -3
-3 -3 -3 -3 -3 -3 -3 -3 -3 -3 -3 -3 -3 -3 -3 -3 -3 -3 -4 -4 -4 -4 -4 -4 -4 -4 -4 -4 -4 -4 -4 -4 -4 -3 -3 -3 -3 -3
-3 -3 -3 -3 -3 -3 -3 -3 -3 -3 -3 -3 -3 -3 -3 -3 -4 -4 -4 -4 -4 -4 -4 -4 -4 -4 -4 -4 -4 -4 -4 -4 -4 -4 -3 -3 -3 -3
-4 -4 -4 -4 -4 -4 -3 -3 -3 -3 -3 -3 -4 -4 -4 -4 -4 -4 -4 -4 -4 -4 -4 -4 -4 -4 -4 -4 -4 -4 -4 -3 -3 -3 -3 -4 -4 -4
-4 -4 -4 -4 -4 -4 -4 -4 -4 -4 -4 -4 -4 -4 -4 -4 -4 -4 -4 -4 -4 -4 -4 -4 -4 -4 -4 -4 -4 -4 -4 -4 -4 -3 -3 -3 -4 -3
Wind_Speed
1 1 1 1 1 2 2 2 3 6 8 6 4 6 11 13 16 16 16 19 20 20 20 19 19 19 20 20 20 20 20 21 21 21 21 21 22 22
1 1 1 2 2 2 2 3 3 4 7 6 6 8 10 13 17 16 16 20 19 20 20 19 19 19 19 20 20 20 20 20 20 21 21 21 21 21
1 1 2 2 2 2 2 3 3 4 7 8 6 7 8 10 13 14 15 14 15 18 19 19 19 19 19 19 19 19 20 20 20 21 21 22 21 20
2 2 3 2 3 3 3 4 4 4 6 10 9 7 8 9 10 11 12 13 13 17 18 18 18 18 19 19 19 19 19 19 20 20 21 21 21 20
3 3 3 3 4 4 4 4 4 5 5 7 9 8 7 8 9 10 10 9 12 14 16 16 17 18 18 19 19 19 19 19 19 20 20 20 20 19
3 3 3 4 4 4 4 4 4 5 5 6 8 8 7 7 7 8 10 8 9 10 13 15 16 18 18 18 18 18 18 18 19 19 19 19 18 18
2 3 4 5 5 5 4 4 4 4 5 6 7 7 7 8 8 7 9 10 9 5 8 9 10 10 12 15 16 17 18 18 18 18 18 18 18 17
3 3 4 4 6 7 8 8 7 6 6 6 6 8 9 8 7 8 8 9 8 5 7 9 7 7 8 10 15 17 17 18 18 18 18 18 17 17
2 3 4 5 6 5 7 8 8 9 8 6 7 8 8 8 8 9 8 8 8 8 7 7 6 7 9 12 15 16 17 17 18 18 18 17 17 17
3 3 4 4 6 6 5 5 6 6 8 6 6 7 7 7 7 7 8 8 8 6 4 5 6 6 9 10 13 15 17 17 18 18 18 18 17 16
3 3 3 4 8 8 5 5 7 7 8 9 10 10 12 12 10 6 6 7 8 6 3 3 5 7 6 5 9 15 16 17 18 18 18 18 17 15
2 3 5 6 8 7 4 4 6 7 7 7 8 9 9 9 10 5 5 6 6 5 3 4 5 6 5 4 5 9 11 15 17 17 18 17 17 11
2 3 4 8 8 8 6 4 6 6 5 5 6 6 6 5 6 6 5 4 5 5 5 5 5 4 4 5 5 6 7 8 10 11 14 16 16 12
3 3 4 8 8 7 6 7 8 6 4 4 5 6 6 6 6 7 8 7 7 8 8 6 4 5 5 6 6 6 6 7 7 7 9 13 13 14
2 5 6 6 6 5 7 8 6 4 4 4 5 6 6 6 6 6 7 7 8 8 7 6 4 4 4 5 6 6 6 6 6 6 7 7 7 7
3 4 5 4 4 5 6 5 4 4 4 4 5 5 5 5 6 6 6 7 6 6 6 7 6 4 4 5 5 6 6 5 7 7 7 6 6 7
3 2 2 3 3 4 4 4 4 5 5 5 5 6 6 6 6 6 5 5 5 6 7 6 7 6 4 4 4 6 6 6 6 7 6 6 6 6
3 2 2 3 3 4 4 5 4 5 5 5 5 6 6 6 7 6 5 5 5 6 6 6 6 5 4 3 2 4 5 5 6 7 6 5 6 6
2 2 3 3 4 4 4 4 5 5 5 5 5 6 6 6 6 6 6 5 6 6 6 6 5 5 6 6 5 4 4 6 6 6 5 4 5 7
2 2 3 3 4 4 4 4 5 5 5 5 5 5 6 6 6 6 6 6 6 6 6 5 4 4 4 5 4 5 8 5 5 6 5 4 4 6
3 3 3 3 4 4 4 4 5 5 5 5 5 6 6 6 6 6 6 8 7 5 6 5 6 8 4 3 3 4 5 8 7 4 5 4 4 5
3 3 4 4 4 4 4 4 5 5 5 5 5 6 6 6 6 7 6 6 5 5 5 5 6 5 3 3 4 5 6 7 8 9 7 4 3 3
3 3 4 4 4 4 4 5 5 5 5 5 5 6 6 6 6 6 5 5 5 5 5 5 5 4 3 3 4 4 6 6 5 6 5 9 7 5
Wind_Direction
202 226 267 278 288 281 271 268 282 303 303 299 307 313 322 323 323 327 324 321 323 323 323 323 323 323 323 323 322 323 322 322 321 320 319 318 317 316
216 228 263 279 290 289 283 283 268 271 287 292 297 304 314 319 322 326 321 321 321 322 323 324 324 324 324 323 323 324 323 321 321 320 320 320 318 317
243 245 268 280 286 292 295 290 281 275 285 297 297 305 308 314 320 322 321 319 319 321 322 324 324 324 324 324 323 323 323 323 323 322 321 322 321 319
240 255 275 287 284 288 285 284 284 281 286 300 307 311 308 312 314 316 321 322 318 318 323 322 324 325 325 324 323 324 324 325 326 325 325 325 325 324
234 245 263 271 278 287 284 284 288 297 294 299 305 308 309 314 318 316 317 318 320 321 324 322 323 324 324 324 325 325 325 326 328 328 327 328 327 328
244 249 254 255 261 273 281 285 297 303 306 305 306 310 311 313 319 322 324 325 319 319 323 321 320 323 323 323 323 325 326 328 330 329 329 329 330 331
268 271 271 280 287 289 297 297 299 301 308 309 309 314 317 325 324 319 318 320 312 310 318 315 315 315 319 320 322 325 329 332 333 333 332 332 332 333
279 288 291 285 296 304 307 306 307 306 305 304 305 310 310 312 313 315 317 324 318 320 321 312 312 310 314 316 324 330 334 337 337 337 337 336 337 339
263 284 299 305 309 294 302 311 309 308 305 299 296 299 303 307 311 314 316 314 305 307 316 306 312 309 313 318 327 335 337 339 340 341 342 342 343 342
260 263 277 294 303 307 309 309 304 303 300 298 288 293 298 304 303 302 301 304 297 295 304 301 312 310 312 314 325 337 341 344 345 345 345 346 348 347
284 287 289 286 306 321 320 310 312 312 313 313 312 311 314 318 322 322 321 322 317 311 314 307 311 314 308 303 321 337 342 344 345 346 347 349 349 347
298 298 308 312 313 321 314 307 309 312 321 326 324 321 320 318 323 316 306 311 314 309 318 323 312 323 318 306 314 331 338 340 342 343 345 348 351 350
296 303 308 319 321 321 320 304 307 321 321 320 319 319 321 320 318 315 304 297 299 295 305 316 310 314 301 306 314 322 331 333 335 337 341 346 350 352
296 298 307 322 326 327 326 325 331 337 330 326 324 322 323 320 317 316 311 300 286 283 293 300 298 307 313 310 310 320 325 327 332 333 337 343 346 348
310 320 326 331 335 333 335 340 341 336 332 328 320 316 315 312 315 320 319 316 310 305 306 303 301 306 304 303 309 316 320 324 332 337 341 341 339 341
337 338 343 346 349 342 342 342 343 337 331 316 315 314 317 322 324 326 324 329 329 327 330 329 315 313 315 303 305 314 320 320 328 331 332 335 341 344
354 357 349 346 347 340 338 341 342 341 336 330 324 323 324 327 326 327 326 330 331 330 333 332 328 315 294 297 310 317 321 322 322 331 335 341 348 351
12 345 334 334 329 328 330 333 333 334 331 329 326 327 326 325 325 327 329 332 332 327 326 326 332 338 338 329 300 311 325 325 329 335 337 339 347 354
16 342 328 324 325 325 325 325 325 326 326 326 326 326 326 325 326 329 331 332 328 327 326 329 336 343 347 344 338 341 333 330 335 339 342 343 342 344
351 333 324 322 322 322 322 325 326 330 331 329 327 327 327 327 328 326 326 324 324 327 330 335 341 340 329 321 317 323 333 329 332 338 340 334 333 339
339 335 326 319 318 318 320 322 324 323 324 326 326 326 326 325 323 322 323 325 326 328 330 331 324 320 310 315 328 336 336 346 349 341 338 340 344 357
331 326 323 318 315 316 319 321 321 320 322 324 324 323 323 321 320 321 323 326 328 328 324 323 327 337 350 345 336 334 338 345 354 2 10 14 3 6
319 318 317 318 320 321 318 315 314 314 316 319 320 319 320 321 321 322 324 326 330 332 336 337 340 343 342 335 336 340 344 346 351 6 13 18 24 17
Height
1527 1525 1524 1523 1522 1520 1518 1516 1513 1506 1500 1497 1495 1492 1488 1484 1480 1475 1470 1466 1462 1457 1454 1450 1446 1443 1439 1435 1431 1428 1423 1419 1415 1412 1408 1404 1400 1396
1523 1522 1521 1520 1518 1517 1515 1512 1510 1506 1500 1495 1492 1489 1485 1481 1476 1472 1467 1462 1457 1453 1449 1445 1442 1438 1434 1431 1427 1423 1419 1415 1411 1407 1403 1399 1395 1391
1520 1519 1518 1517 1515 1513 1511 1509 1506 1503 1498 1492 1490 1486 1481 1477 1472 1468 1463 1458 1453 1449 1445 1441 1437 1434 1430 1426 1422 1418 1415 1411 1407 1403 1398 1394 1390 1386
1517 1516 1514 1513 1512 1510 1508 1505 1502 1499 1495 1489 1485 1482 1478 1473 1469 1464 1459 1454 1449 1445 1441 1437 1433 1429 1426 1422 1418 1414 1410 1407 1403 1398 1394 1390 1386 1382
1513 1512 1511 1510 1508 1506 1504 1502 1499 1496 1492 1487 1482 1478 1474 1470 1465 1460 1455 1450 1446 1441 1437 1433 1429 1425 1421 1418 1414 1410 1406 1403 1399 1395 1391 1386 1382 1378
1510 1509 1507 1506 1504 1503 1500 1498 1495 1492 1488 1484 1479 1475 1471 1466 1462 1456 1450 1446 1442 1438 1434 1430 1426 1422 1418 1414 1410 1406 1403 1399 1395 1391 1387 1383 1379 1375
1506 1505 1504 1503 1501 1500 1497 1494 1491 1488 1484 1480 1476 1471 1467 1463 1459 1454 1449 1443 1439 1435 1430 1426 1422 1418 1414 1410 1406 1403 1399 1396 1392 1388 1384 1380 1376 1373
1502 1501 1500 1499 1497 1496 1494 1491 1489 1485 1481 1478 1473 1469 1465 1461 1457 1452 1447 1441 1435 1432 1427 1423 1420 1415 1411 1407 1404 1400 1397 1393 1389 1385 1381 1378 1374 1370
1498 1497 1496 1495 1493 1491 1489 1487 1485 1482 1479 1476 1471 1467 1463 1459 1454 1449 1445 1440 1435 1430 1425 1420 1417 1413 1409 1405 1402 1398 1394 1390 1386 1383 1379 1375 1371 1368
1495 1494 1493 1491 1489 1487 1485 1483 1480 1478 1475 1472 1468 1465 1461 1457 1453 1448 1443 1438 1433 1429 1424 1419 1414 1411 1407 1403 1400 1396 1392 1388 1384 1381 1377 1373 1369 1366
1491 1490 1489 1487 1486 1484 1482 1479 1476 1474 1471 1468 1465 1462 1458 1454 1450 1445 1440 1435 1429 1425 1423 1418 1413 1408 1404 1402 1398 1395 1391 1387 1383 1379 1375 1372 1368 1365
1488 1487 1485 1484 1482 1481 1478 1475 1472 1470 1467 1464 1461 1458 1455 1451 1447 1443 1439 1434 1429 1424 1421 1417 1413 1408 1403 1399 1397 1393 1390 1386 1383 1379 1375 1371 1368 1364
1484 1483 1481 1480 1479 1477 1475 1473 1470 1467 1464 1461 1458 1455 1451 1448 1444 1441 1437 1433 1428 1424 1421 1417 1413 1409 1405 1399 1395 1393 1389 1385 1381 1378 1374 1370 1367 1363
1481 1480 1478 1477 1476 1474 1472 1470 1467 1464 1461 1458 1455 1452 1448 1445 1442 1438 1435 1431 1428 1424 1420 1417 1413 1409 1405 1399 1395 1391 1388 1385 1381 1377 1373 1370 1366 1363
1478 1477 1476 1474 1473 1470 1469 1466 1464 1461 1458 1455 1452 1449 1446 1443 1439 1436 1432 1429 1426 1422 1419 1415 1412 1408 1405 1400 1396 1391 1387 1384 1381 1377 1373 1370 1366 1363
1476 1474 1473 1472 1470 1468 1466 1463 1461 1458 1456 1453 1450 1447 1444 1441 1437 1434 1430 1427 1423 1420 1418 1414 1411 1407 1403 1400 1396 1392 1388 1385 1381 1377 1373 1370 1367 1364
1473 1472 1470 1468 1466 1465 1463 1461 1458 1456 1454 1451 1448 1445 1442 1439 1436 1432 1429 1426 1422 1418 1415 1412 1410 1406 1403 1400 1396 1392 1389 1385 1382 1378 1373 1370 1368 1365
1471 1469 1468 1466 1464 1462 1460 1458 1456 1454 1451 1449 1446 1444 1440 1437 1434 1431 1428 1425 1421 1418 1415 1411 1408 1405 1402 1398 1397 1393 1389 1385 1382 1379 1375 1371 1368 1366
1468 1467 1466 1464 1462 1460 1459 1456 1454 1452 1450 1447 1445 1442 1439 1436 1433 1430 1427 1424 1421 1418 1415 1412 1409 1405 1401 1398 1396 1394 1390 1386 1382 1379 1376 1373 1370 1368
1466 1465 1464 1462 1460 1459 1457 1455 1452 1450 1448 1445 1443 1441 1438 1435 1432 1429 1426 1423 1420 1418 1415 1412 1409 1406 1403 1401 1397 1394 1392 1388 1384 1380 1377 1374 1372 1370
1464 1463 1462 1460 1458 1457 1455 1453 1451 1448 1446 1444 1441 1439 1437 1434 1431 1429 1426 1423 1421 1418 1415 1412 1410 1408 1405 1401 1398 1394 1392 1389 1386 1382 1379 1376 1373 1371
1462 1461 1460 1458 1456 1455 1453 1451 1449 1446 1444 1442 1440 1438 1435 1433 1430 1428 1425 1422 1420 1418 1415 1413 1410 1408 1405 1402 1398 1395 1392 1390 1387 1384 1381 1379 1377 1374
1460 1459 1457 1456 1454 1452 1451 1449 1447 1445 1443 1440 1438 1436 1434 1432 1429 1427 1425 1422 1420 1418 1415 1413 1411 1408 1406 1403 1400 1396 1393 1391 1388 1385 1383 1382 1380 1378